Керва

Россия / Московская область     55°36′37″N   39°34′42″E
темп.,
°C
ветер,
м/с
пор.,
м/с
влажн.,
%
обл.,
%
осадки,
мм/ч
давл.,
гПа
погр.,
м
17 апреля, сб
сб1700:00+10всв5128798 0.2 1021524
03:00+9всв41192100 1.5 1022463
06:00+8всв4109251 0.4 1022437
09:00+11всв597678 0.4 1022549
12:00+15всв69565 0.0 1021955
15:00+17всв694783 0.0 10201396
18:00+15всв6115411 0.0 10201076
21:00+11всв6136210 0.0 1021719
18 апреля, вс
вс1800:00+8всв5146065 0.0 1021601
03:00+6всв5146816 0.0 1021524
06:00+5всв5137491 0.0 1021578
09:00+7в51164100 0.0 1021776
12:00+7вюв4972100 0.7 1022937
15:00+6в41087100 3.9 1023948
18:00+7в41087100 1.1 10231014
21:00+7в5108399 1.5 1024987
19 апреля, пн
пн1900:00+7всв41084100 0.4 1024759
03:00+6всв41189100 0.9 1024564
06:00+5всв41091100 0.3 1025543
09:00+5всв5987100 0.8 1025847
12:00+4всв51088100 0.3 1026870
15:00+5в41186100 1.1 1026889
18:00+7в51069100 0.1 10251127
21:00+4в5126651 0.1 1026640
20 апреля, вт
вт2000:00+2всв5136815 0.0 1025580
03:00+3в51270100 0.0 1025638
06:00+3в51276100 0.0 1023616
09:00+3в61478100 0.1 1022723
12:00+7в71371100 0.2 1020979
15:00+8в71572100 0.6 10171202
18:00+8вюв81875100 1.2 10141229
21:00+6в92190100 9.3 10111323
21 апреля, ср
ср2100:00+7вюв82190100 6.1 10081473
03:00+7вюв81790100 7.2 10051044
06:00+8вюв81891100 0.3 10031332
09:00+9юв81789100 3.8 10011663
12:00+7ю81789100 2.3 10031510
15:00+5ю81694100 2.6 10061217
18:00+6ююз71485100 0.1 10091314
21:00+6ююз61387100 0.3 10121283